(138731) = 2000 SE191 = 2001 YU159

Discovered at Socorro on 2000-09-24 by LINEAR.

Orbit

Orbit type: Main Belt

Note: WebGL enabled browser required.

epoch2024-03-31.0
epoch JD2460400.5
perihelion date2023-05-10.83849
perihelion JD2460075.33849
argument of perihelion (°)20.83836
ascending node (°)31.34355
inclination (°)12.32921
eccentricity0.1385282
perihelion distance (AU)2.6892771
Tisserand w.r.t. Jupiter3.2
ΔV w.r.t. Earth (km/sec)10.9
semimajor axis (AU)3.1217239
mean anomaly (°)58.10470
mean daily motion (°/day)0.17869490
aphelion distance (AU)3.554
period (years)5.52
P-vector [x]0.61742411
P-vector [y]0.68813189
P-vector [z]0.38113248
Q-vector [x]-0.77874948
Q-vector [y]0.46628937
Q-vector [z]0.41967066
absolute magnitude15.33
phase slope0.15
uncertainty0
referenceMPEC 2024-E179
observations used596
oppositions16
arc length (days)8570
first opposition used2000
last opposition used2024
residual rms (arc-secs)0.72
perturbers coarse indicatorM-v
perturbers precise indicator003Ek
first observation date used2000-09-24.0
last observation date used2024-03-12.0
computer nameMPCLINUX
JD of orbit computation2456937.208804
perihelion JD uncertainty (days)1.1544E-04
argument of perihelion uncertainty (°)3.3220E-05
ascending node uncertainty (°)2.3579E-05
inclination uncertainty (°)4.3734E-06
eccentricity uncertainty 5.5395E-08
perihelion distance uncertainty (AU)1.7412E-07
Minimum Orbit Intersection Distances (in AU)
for orbit epoch: 2460400.5, reference: E2024-GB3
Mercury2.37509
Venus1.97129
Earth1.70339
Mars1.20861
Jupiter1.88478
Saturn6.18668
Uranus15.0962
Neptune27.0665

Observations

602 total observations over interval: 2000 09 24.26816 – 2024 03 12.186802
These data are available for download (format description).

Date (UT) J2000 RA J2000 Dec Magn Location Ref
2000 09 24.26816 00 29 13.13 -06 55 05.7 19.0   704 – Lincoln Laboratory ETS, New Mexico MPS 20111
2000 09 24.28279 00 29 12.26 -06 55 07.3 19.0   704 – Lincoln Laboratory ETS, New Mexico MPS 20111
2000 09 24.29795 00 29 11.40 -06 55 08.6 19.5   704 – Lincoln Laboratory ETS, New Mexico MPS 20111
2000 09 24.31281 00 29 10.64 -06 55 10.0 19.5   704 – Lincoln Laboratory ETS, New Mexico MPS 20111
2000 09 24.32728 00 29 09.82 -06 55 10.7 19.5   704 – Lincoln Laboratory ETS, New Mexico MPS 20111
2000 09 25.39446 00 28 14.28 -06 57 03.9 19.4   608 – Haleakala-AMOS MPS 20111
2000 09 25.40558 00 28 13.65 -06 57 05.1 19.6   608 – Haleakala-AMOS MPS 20111
2000 09 25.41648 00 28 13.07 -06 57 06.1 19.7   608 – Haleakala-AMOS MPS 20111
2000 10 02.29989 00 22 10.19 -07 06 41.7 19.2   704 – Lincoln Laboratory ETS, New Mexico MPS 20111
2000 10 02.31476 00 22 09.38 -07 06 41.3 18.8   704 – Lincoln Laboratory ETS, New Mexico MPS 20111
2000 10 02.33152 00 22 08.57 -07 06 42.1 18.8   704 – Lincoln Laboratory ETS, New Mexico MPS 20111
2001 12 09.40413 08 17 04.12 +36 47 03.9 19.7   704 – Lincoln Laboratory ETS, New Mexico MPS 134728
2001 12 09.41910 08 17 03.75 +36 47 09.9 19.4   704 – Lincoln Laboratory ETS, New Mexico MPS 134728
2001 12 09.43427 08 17 03.37 +36 47 16.9 19.6   704 – Lincoln Laboratory ETS, New Mexico MPS 134728
2001 12 18.45148 08 12 50.280 +37 45 07.95 19.62 V 645 – Apache Point-Sloan Digital Sky Survey MPS 127136
2001 12 18.451480 08 12 50.280 +37 45 07.95 19.62 V 645 – Apache Point-Sloan Digital Sky Survey MPS 127136
2001 12 18.454952 08 12 50.146 +37 45 09.20 20.37   645 – Apache Point-Sloan Digital Sky Survey MPS 127136
2001 12 19.292680 08 12 19.408 +37 50 24.72 19.61 V 645 – Apache Point-Sloan Digital Sky Survey MPS 127136
2001 12 19.296152 08 12 19.273 +37 50 26.00 20.45   645 – Apache Point-Sloan Digital Sky Survey MPS 127136
2001 12 20.53152 08 11 30.93 +37 58 07.8 20.4   644 – Palomar Mountain/NEAT MPS 134728
2001 12 20.54201 08 11 30.49 +37 58 11.6 19.5   644 – Palomar Mountain/NEAT MPS 134728
2001 12 20.55236 08 11 30.02 +37 58 15.5 19.8   644 – Palomar Mountain/NEAT MPS 134728
2002 01 14.41129 07 48 34.38 +39 54 21.0 19.3   644 – Palomar Mountain/NEAT MPS 134728
2002 01 14.43445 07 48 32.84 +39 54 24.4 19.3   644 – Palomar Mountain/NEAT MPS 134728
2002 01 14.46259 07 48 31.00 +39 54 28.5 19.9   644 – Palomar Mountain/NEAT MPS 134728
2002 01 23.24766 07 39 19.62 +40 08 06.5 19.7   704 – Lincoln Laboratory ETS, New Mexico MPS 134728
2002 01 23.26248 07 39 18.63 +40 08 07.5 20.5   704 – Lincoln Laboratory ETS, New Mexico MPS 134728
2002 01 23.27723 07 39 17.73 +40 08 07.1 19.5   704 – Lincoln Laboratory ETS, New Mexico MPS 134728
2002 01 23.29199 07 39 16.76 +40 08 07.9 19.7   704 – Lincoln Laboratory ETS, New Mexico MPS 134728
2003 03 27.39220 12 57 47.32 +00 31 11.4 20.2 V 691 – Steward Observatory, Kitt Peak-Spacewatch MPS 134728
2003 03 27.41878 12 57 45.99 +00 31 14.7 20.4 V 691 – Steward Observatory, Kitt Peak-Spacewatch MPS 134728
2003 03 27.44526 12 57 44.70 +00 31 19.3 20.4 V 691 – Steward Observatory, Kitt Peak-Spacewatch MPS 134728
2003 05 05.14148 12 29 50.21 +01 25 08.4 21.7 V 691 – Steward Observatory, Kitt Peak-Spacewatch MPS 134728
2003 05 05.16731 12 29 49.41 +01 25 08.1 21.7 V 691 – Steward Observatory, Kitt Peak-Spacewatch MPS 134728
2003 05 05.19338 12 29 48.59 +01 25 07.2 22.5 V 691 – Steward Observatory, Kitt Peak-Spacewatch MPS 134728
2006 09 26.08575 03 58 14.37 +24 00 18.8 19.5 R 152 – Moletai Astronomical Observatory MPS 291278
2006 09 26.10883 03 58 14.48 +24 00 28.2 20.0 R 152 – Moletai Astronomical Observatory MPS 291278
2006 10 04.41051 03 58 13.47 +24 44 53.6 19.8 V G96 – Mt. Lemmon Survey MPS 182442
2006 10 04.41932 03 58 13.40 +24 44 56.5 19.9 V G96 – Mt. Lemmon Survey MPS 182442
2006 10 04.42822 03 58 13.33 +24 44 59.3 20.0 V G96 – Mt. Lemmon Survey MPS 182442
2006 10 04.43702 03 58 13.26 +24 45 02.0 19.8 V G96 – Mt. Lemmon Survey MPS 182442
2006 10 19.43818 03 53 08.42 +25 56 26.0 19.9 V 691 – Steward Observatory, Kitt Peak-Spacewatch MPS 182729
2006 10 19.47023 03 53 07.26 +25 56 34.4 19.9 V 703 – Catalina Sky Survey MPS 182729
2006 10 19.47973 03 53 06.96 +25 56 36.3 20.2 V 691 – Steward Observatory, Kitt Peak-Spacewatch MPS 182729
2006 10 19.48013 03 53 06.93 +25 56 37.1 19.6 V 703 – Catalina Sky Survey MPS 182729
2006 10 19.49005 03 53 06.57 +25 56 38.6 19.6 V 703 – Catalina Sky Survey MPS 182729
2006 10 19.49711 03 53 06.35 +25 56 41.0 20.2 V 691 – Steward Observatory, Kitt Peak-Spacewatch MPS 182729
2006 10 19.49993 03 53 06.18 +25 56 40.4 19.8 V 703 – Catalina Sky Survey MPS 182729
2006 10 23.42631 03 50 43.04 +26 12 42.7 20.0 V 691 – Steward Observatory, Kitt Peak-Spacewatch MPS 183887
2006 10 23.44380 03 50 42.30 +26 12 47.0 19.9 V 691 – Steward Observatory, Kitt Peak-Spacewatch MPS 183887
2006 10 23.46130 03 50 41.60 +26 12 51.0 19.9 V 691 – Steward Observatory, Kitt Peak-Spacewatch MPS 183887
2006 10 27.34588 03 47 56.54 +26 27 19.4 19.5 V 703 – Catalina Sky Survey MPS 185232
2006 10 27.35234 03 47 56.22 +26 27 19.4 19.7 V 703 – Catalina Sky Survey MPS 185232
2006 10 27.35883 03 47 55.86 +26 27 21.2 18.8 V 703 – Catalina Sky Survey MPS 185232
2006 10 27.36527 03 47 55.46 +26 27 23.4 18.9 V 703 – Catalina Sky Survey MPS 185232
2006 11 09.38357 03 36 27.51 +27 04 13.9 19.0 R 644 – Palomar Mountain/NEAT MPS 190282
2006 11 09.40431 03 36 26.24 +27 04 16.2 18.9 R 644 – Palomar Mountain/NEAT MPS 190282
2006 11 09.42506 03 36 24.99 +27 04 18.7 19.1 R 644 – Palomar Mountain/NEAT MPS 190282
2006 11 15.25319 03 30 34.53 +27 14 25.2 19.1   704 – Lincoln Laboratory ETS, New Mexico MPS 186761
2006 11 15.26455 03 30 33.89 +27 14 27.6 19.3   704 – Lincoln Laboratory ETS, New Mexico MPS 186761
2006 11 15.27591 03 30 33.15 +27 14 28.4 19.4   704 – Lincoln Laboratory ETS, New Mexico MPS 186761
2006 11 15.28729 03 30 32.49 +27 14 28.4 19.3   704 – Lincoln Laboratory ETS, New Mexico MPS 186761
2006 11 16.26451 03 29 32.74 +27 15 47.1   704 – Lincoln Laboratory ETS, New Mexico MPS 406756
2006 11 16.27626 03 29 31.83 +27 15 46.5   704 – Lincoln Laboratory ETS, New Mexico MPS 406756
2006 11 16.28801 03 29 31.11 +27 15 48.3   704 – Lincoln Laboratory ETS, New Mexico MPS 406756
2006 11 20.32595 03 25 23.48 +27 20 00.9 18.7 V G96 – Mt. Lemmon Survey MPS 188348
2006 11 20.33495 03 25 22.94 +27 20 01.6 18.5 V G96 – Mt. Lemmon Survey MPS 188348
2006 11 20.34396 03 25 22.33 +27 20 01.7 18.8 V G96 – Mt. Lemmon Survey MPS 188348
2006 11 20.35295 03 25 21.75 +27 20 02.2 18.8 V G96 – Mt. Lemmon Survey MPS 188348
2006 12 14.24247 03 04 47.46 +27 18 04.1 19.5 V 703 – Catalina Sky Survey MPS 195264
2006 12 14.24836 03 04 47.17 +27 18 04.3 19.6 V 703 – Catalina Sky Survey MPS 195264
2006 12 14.25426 03 04 46.92 +27 18 04.7 19.3 V 703 – Catalina Sky Survey MPS 195264
2006 12 14.26016 03 04 46.63 +27 18 04.0 20.8 V 703 – Catalina Sky Survey MPS 195264
2007 03 14.14520 03 56 06.90 +29 46 58.8 20.2 V G96 – Mt. Lemmon Survey MPS 204373
2007 03 14.15303 03 56 07.58 +29 47 00.4 20.1 V G96 – Mt. Lemmon Survey MPS 204373
2007 03 14.16089 03 56 08.26 +29 47 02.1 20.6 V G96 – Mt. Lemmon Survey MPS 204373
2007 03 14.16877 03 56 08.95 +29 47 03.4 20.4 V G96 – Mt. Lemmon Survey MPS 204373
2007 10 10.49906 10 06 51.48 +22 41 25.2 20.6 V G96 – Mt. Lemmon Survey MPS 220029
2007 10 10.50200 10 06 51.73 +22 41 24.8 20.8 V G96 – Mt. Lemmon Survey MPS 220029
2007 10 10.50492 10 06 51.98 +22 41 23.4 20.7 V G96 – Mt. Lemmon Survey MPS 220029
2007 10 10.50786 10 06 52.23 +22 41 23.3 21.1 V G96 – Mt. Lemmon Survey MPS 220029
2008 02 06.71209 11 10 45.62 +21 38 08.1 19.9 R D29 – Purple Mountain Observatory, XuYi Station MPS 237199
2008 02 06.73029 11 10 44.83 +21 38 13.8 19.2 R D29 – Purple Mountain Observatory, XuYi Station MPS 237199
2008 02 06.74959 11 10 44.04 +21 38 19.1 19.2 R D29 – Purple Mountain Observatory, XuYi Station MPS 237199
2008 02 06.76252 11 10 43.49 +21 38 22.5 19.5 R D29 – Purple Mountain Observatory, XuYi Station MPS 237199
2008 02 13.24690 11 06 01.47 +22 07 43.9 19.7 V 703 – Catalina Sky Survey MPS 238945
2008 02 13.25442 11 06 01.08 +22 07 45.9 20.1 V 703 – Catalina Sky Survey MPS 238945
